When you browse on this site, cookies collect data to enhance your experience and personalize the content and advertising you see.
Visit our Privacy Policy to learn more. By continuing to use the site, you agree to this use of cookies and data.
  • In Hungary
  • List of Countries
  • For 7 days
  • Water Temperature
  • Satellite Maps
  • Weather Map
  • News
  • Weather Widgets
  • user-avatar
    Login

    Hourly Weather Las Vegas

    Today, 16 February, Saturday

    Time Temperature Precipitation Wind Pressure Humidity
    00:00 +6°C° 0 mm 8 mps 705 mmHg 59%
    01:00 +6°C° 0 mm 7 mps 705 mmHg 59%
    02:00 +5°C° 0 mm 6 mps 706 mmHg 60%
    03:00 +6°C° 0 mm 5 mps 706 mmHg 60%
    04:00 +5°C° 0 mm 3 mps 706 mmHg 60%
    05:00 +5°C° 0 mm 3 mps 707 mmHg 59%
    06:00 +5°C° 0 mm 3 mps 707 mmHg 58%
    07:00 +4°C° 0 mm 3 mps 708 mmHg 57%
    08:00 +7°C° 0 mm 2 mps 708 mmHg 48%
    09:00 +8°C° 0 mm 2 mps 708 mmHg 39%
    10:00 +9°C° 0 mm 2 mps 709 mmHg 31%
    11:00 +10°C° 0 mm 2 mps 708 mmHg 30%
    12:00 +10°C° 0 mm 2 mps 708 mmHg 29%
    13:00 +12°C° 0 mm 2 mps 707 mmHg 28%
    14:00 +11°C° 0 mm 3 mps 707 mmHg 27%
    15:00 +11°C° 0 mm 3 mps 706 mmHg 27%
    16:00 +11°C° 0 mm 4 mps 706 mmHg 27%
    17:00 +10°C° 0 mm 3 mps 706 mmHg 31%
    18:00 +9°C° 0 mm 3 mps 706 mmHg 34%
    19:00 +9°C° 0 mm 2 mps 706 mmHg 38%
    20:00 +8°C° 0 mm 2 mps 706 mmHg 39%
    21:00 +8°C° 0 mm 2 mps 707 mmHg 41%
    22:00 +7°C° 0 mm 2 mps 707 mmHg 42%
    23:00 +7°C° 0 mm 2 mps 706 mmHg 44%

    Tomorrow, 17 February, Sunday

    Time Temperature Precipitation Wind Pressure Humidity
    00:00 +7°C° 0 mm 2 mps 706 mmHg 45%
    01:00 +6°C° 0 mm 2 mps 706 mmHg 46%
    02:00 +7°C° 0 mm 1 mps 706 mmHg 48%
    03:00 +6°C° 0 mm 1 mps 706 mmHg 49%
    04:00 +6°C° 0 mm 1 mps 705 mmHg 50%
    05:00 +6°C° 0 mm 1 mps 706 mmHg 51%
    06:00 +6°C° 0 mm 1 mps 706 mmHg 52%
    07:00 +5°C° 0 mm 1 mps 706 mmHg 53%
    08:00 +6°C° 0 mm 1 mps 706 mmHg 50%
    09:00 +7°C° 0 mm 1 mps 706 mmHg 48%
    10:00 +8°C° 0 mm 1 mps 706 mmHg 45%
    11:00 +8°C° 0.1 mm 1 mps 706 mmHg 45%
    12:00 +8°C° 0.1 mm 1 mps 705 mmHg 45%
    13:00 +7°C° 0.1 mm 2 mps 705 mmHg 45%
    14:00 +8°C° 0.1 mm 2 mps 704 mmHg 44%
    15:00 +8°C° 0.1 mm 2 mps 704 mmHg 43%
    16:00 +8°C° 0.1 mm 2 mps 704 mmHg 42%
    17:00 +7°C° 0 mm 2 mps 704 mmHg 44%
    18:00 +7°C° 0 mm 2 mps 704 mmHg 46%
    19:00 +5°C° 0 mm 3 mps 704 mmHg 48%
    20:00 +5°C° 0 mm 3 mps 704 mmHg 51%
    21:00 +5°C° 0 mm 2 mps 705 mmHg 53%
    22:00 +5°C° 0 mm 2 mps 705 mmHg 55%
    23:00 +4°C° 0 mm 3 mps 705 mmHg 55%

    Day after tomorrow, 18 February, Monday

    Time Temperature Precipitation Wind Pressure Humidity
    00:00 +4°C° 0 mm 3 mps 705 mmHg 55%
    01:00 +3°C° 0 mm 3 mps 705 mmHg 54%
    02:00 +3°C° 0 mm 3 mps 705 mmHg 54%
    03:00 +3°C° 0 mm 3 mps 705 mmHg 54%
    04:00 +3°C° 0 mm 3 mps 705 mmHg 54%
    05:00 +3°C° 0.1 mm 3 mps 705 mmHg 54%
    06:00 +3°C° 0.1 mm 3 mps 706 mmHg 54%
    07:00 +3°C° 0.1 mm 4 mps 706 mmHg 54%
    08:00 +3°C° 0.1 mm 4 mps 707 mmHg 52%
    09:00 +3°C° 0.1 mm 5 mps 707 mmHg 49%
    10:00 +5°C° 0.1 mm 5 mps 708 mmHg 47%
    11:00 +5°C° 0 mm 5 mps 707 mmHg 44%
    12:00 +5°C° 0 mm 6 mps 707 mmHg 40%
    13:00 +7°C° 0 mm 6 mps 707 mmHg 37%
    14:00 +7°C° 0 mm 6 mps 707 mmHg 36%
    15:00 +7°C° 0 mm 6 mps 706 mmHg 35%
    16:00 +7°C° 0 mm 6 mps 706 mmHg 34%
    17:00 +6°C° 0 mm 5 mps 706 mmHg 36%
    18:00 +5°C° 0 mm 5 mps 707 mmHg 37%
    19:00 +3°C° 0 mm 5 mps 707 mmHg 39%
    20:00 +3°C° 0 mm 5 mps 708 mmHg 39%
    21:00 +3°C° 0 mm 5 mps 708 mmHg 40%
    22:00 +3°C° 0 mm 4 mps 708 mmHg 40%
    23:00 +3°C° 0 mm 4 mps 708 mmHg 41%

    19 February, Tuesday

    Time Temperature Precipitation Wind Pressure Humidity
    00:00 +1°C° 0 mm 4 mps 709 mmHg 41%
    01:00 +1°C° 0 mm 4 mps 709 mmHg 42%
    02:00 +1°C° 0 mm 4 mps 709 mmHg 41%
    03:00 0°C° 0 mm 4 mps 709 mmHg 41%
    04:00 0°C° 0 mm 4 mps 709 mmHg 40%
    05:00 0°C° 0 mm 4 mps 709 mmHg 40%
    06:00 0°C° 0 mm 4 mps 709 mmHg 39%
    07:00 0°C° 0 mm 4 mps 710 mmHg 38%
    08:00 +1°C° 0 mm 4 mps 710 mmHg 36%
    09:00 +3°C° 0 mm 4 mps 711 mmHg 33%
    10:00 +3°C° 0 mm 5 mps 711 mmHg 31%
    11:00 +5°C° 0 mm 5 mps 711 mmHg 30%
    12:00 +5°C° 0 mm 5 mps 710 mmHg 29%
    13:00 +6°C° 0 mm 5 mps 710 mmHg 27%
    14:00 +6°C° 0 mm 4 mps 710 mmHg 27%
    15:00 +6°C° 0 mm 4 mps 710 mmHg 26%
    16:00 +6°C° 0 mm 4 mps 709 mmHg 26%
    17:00 +5°C° 0 mm 4 mps 710 mmHg 28%
    18:00 +4°C° 0 mm 4 mps 710 mmHg 30%
    19:00 +4°C° 0 mm 3 mps 710 mmHg 32%
    20:00 +3°C° 0 mm 3 mps 710 mmHg 33%
    21:00 +3°C° 0 mm 3 mps 710 mmHg 33%
    22:00 +3°C° 0 mm 2 mps 710 mmHg 34%
    23:00 +3°C° 0 mm 2 mps 710 mmHg 35%

    20 February, Wednesday

    Time Temperature Precipitation Wind Pressure Humidity
    00:00 +3°C° 0 mm 2 mps 710 mmHg 37%
    01:00 +3°C° 0 mm 1 mps 710 mmHg 38%
    02:00 +3°C° 0 mm 1 mps 709 mmHg 39%
    03:00 +3°C° 0 mm 1 mps 709 mmHg 40%
    04:00 +1°C° 0 mm 0 mps 708 mmHg 42%
    05:00 +1°C° 0 mm 0 mps 709 mmHg 42%
    06:00 +3°C° 0 mm 1 mps 709 mmHg 42%
    07:00 +3°C° 0 mm 1 mps 709 mmHg 41%
    08:00 +4°C° 0 mm 1 mps 709 mmHg 39%
    09:00 +5°C° 0 mm 1 mps 709 mmHg 36%
    10:00 +6°C° 0 mm 1 mps 709 mmHg 33%
    11:00 +6°C° 0 mm 1 mps 708 mmHg 32%
    12:00 +6°C° 0 mm 2 mps 708 mmHg 30%
    13:00 +7°C° 0 mm 2 mps 707 mmHg 28%
    14:00 +7°C° 0 mm 2 mps 706 mmHg 27%
    15:00 +8°C° 0 mm 2 mps 706 mmHg 26%
    16:00 +8°C° 0 mm 2 mps 705 mmHg 24%
    17:00 +7°C° 0 mm 2 mps 705 mmHg 26%
    18:00 +7°C° 0 mm 2 mps 704 mmHg 29%
    19:00 +6°C° 0 mm 2 mps 704 mmHg 31%
    20:00 +6°C° 0 mm 2 mps 704 mmHg 32%
    21:00 +5°C° 0 mm 2 mps 703 mmHg 34%
    22:00 +5°C° 0 mm 2 mps 703 mmHg 35%
    23:00 +4°C° 0 mm 2 mps 702 mmHg 37%

    21 February, Thursday

    Time Temperature Precipitation Wind Pressure Humidity
    00:00 +4°C° 0 mm 2 mps 702 mmHg 39%
    01:00 +4°C° 0 mm 2 mps 701 mmHg 41%
    02:00 +3°C° 0 mm 2 mps 701 mmHg 42%
    03:00 +3°C° 0 mm 2 mps 700 mmHg 43%
    04:00 +3°C° 0 mm 2 mps 700 mmHg 44%
    05:00 +2°C° 0 mm 3 mps 699 mmHg 45%
    06:00 +2°C° 0 mm 3 mps 699 mmHg 46%
    07:00 +3°C° 0 mm 3 mps 699 mmHg 47%
    08:00 +1°C° 0.4 mm 4 mps 699 mmHg 55%
    09:00 +1°C° 0.4 mm 4 mps 698 mmHg 62%
    10:00 +1°C° 0.4 mm 4 mps 698 mmHg 70%
    11:00 +3°C° 0.7 mm 4 mps 698 mmHg 73%
    12:00 +3°C° 0.7 mm 4 mps 697 mmHg 75%
    13:00 +3°C° 0.7 mm 4 mps 697 mmHg 78%
    14:00 +3°C° 2.1 mm 3 mps 697 mmHg 81%
    15:00 +2°C° 2.1 mm 3 mps 696 mmHg 84%
    16:00 +3°C° 2.1 mm 2 mps 696 mmHg 88%
    17:00 +2°C° 0.1 mm 3 mps 696 mmHg 84%
    18:00 +1°C° 0.1 mm 3 mps 696 mmHg 81%
    19:00 +1°C° 0.1 mm 3 mps 697 mmHg 77%
    20:00 0°C° 0 mm 3 mps 697 mmHg 76%
    21:00 0°C° 0 mm 3 mps 698 mmHg 75%
    22:00 -1°C° 0 mm 3 mps 698 mmHg 73%
    23:00 -1°C° 0 mm 2 mps 699 mmHg 73%
    Show more